Vertical_Velocity
1 4 -2 -1 -1 2 4 1 -4 -2 2 5 1 -1 2 3 0 -3 -3 2 -0 -0 -2 -6 2 -3 -2 -1 -0 0 3 3 2 2 2 -0 2 0 2 -1 -3 -4 -2 -1 2 3 -5 -2 2 6 8 -0 1 -0
-5 1 3 -1 1 1 1 -1 2 -2 -2 1 4 3 -2 3 1 -0 -1 -1 2 -0 -1 6 -3 -5 -4 -2 -1 0 2 -1 -1 1 2 1 1 1 0 -0 1 2 -6 -3 -2 -10 -1 -3 -3 -4 -2 -4 -3 -1
-2 -4 -3 -1 -0 2 5 1 -1 1 -5 -2 2 5 5 -2 5 4 -4 -3 -1 2 -3 1 1 3 3 -1 0 -1 -1 -0 0 -1 -1 -0 2 -0 0 -4 2 -0 -1 1 4 -5 -6 -2 -1 -0 4 1 9 3
-2 -2 3 -5 0 -0 -1 7 5 5 -1 1 -4 2 3 3 0 5 6 4 -3 -2 3 -3 -2 1 4 2 1 2 1 -2 -1 -1 0 -0 1 -0 -1 0 4 1 2 -2 -6 -7 2 -6 -3 -1 1 1 -0 1
6 -1 -5 1 -2 -1 1 -2 -1 3 9 3 0 1 2 1 1 3 -1 3 8 -7 -0 -5 -3 -3 -1 2 5 3 3 4 1 1 1 -2 -0 2 -0 3 0 -6 -8 -2 -8 -5 2 -3 2 2 -2 -5 -1 1
1 -1 2 -7 3 -4 3 1 1 -1 5 5 9 -2 5 -3 -0 9 -3 -3 1 6 -1 -0 -2 2 3 -1 2 4 4 3 0 -1 -2 -1 -1 1 3 -0 -8 -5 0 -0 -8 -1 -3 -2 -2 0 -2 -1 -1 -0
-1 -1 -3 3 5 6 -2 -0 4 -1 4 1 3 11 1 6 -2 -7 -1 2 3 9 1 -1 -1 -0 1 5 2 2 3 1 1 -1 1 -0 -0 -2 2 0 -5 -1 0 1 -0 6 -2 -1 -7 -4 -1 0 -1 1
2 -4 2 -6 4 2 4 2 4 4 -3 6 4 6 9 13 8 10 1 -1 5 1 2 1 -1 -1 -1 -0 2 2 1 0 1 -1 0 -0 2 2 2 -7 -11 1 7 0 -4 -1 -3 2 -0 3 -1 -5 1 -1
1 3 -1 0 -5 2 2 1 1 5 5 8 8 21 14 22 9 -11 0 7 -1 7 2 1 -1 -1 1 -1 1 1 2 2 0 1 -1 3 0 -4 -13 -5 -2 -4 -9 -3 2 -2 -0 0 2 1 1 1 -3 -2
-1 -2 -4 0 2 -6 -1 -0 -0 -1 11 23 24 -1 -1 -2 -2 9 11 0 9 -1 3 0 3 -0 -4 1 2 2 1 -1 1 -8 2 4 -7 -16 -7 -5 -0 -2 0 3 -0 2 -1 -4 1 -1 0 -1 -3 -2
-1 0 0 0 -2 7 3 -3 2 3 35 13 1 -0 1 13 3 4 1 3 2 3 2 -3 -15 -3 -2 -2 -2 -1 -1 -1 3 -3 4 -1 -3 -11 3 -0 -1 3 -2 -4 2 -1 -0 -0 -0 0 2 2 1 1
-1 2 1 1 2 -1 5 5 6 14 0 -4 -10 2 7 1 3 2 -1 2 3 -6 3 -0 -7 -1 2 -1 -1 1 -0 2 -1 -1 5 -1 -13 -4 -2 -3 -2 -1 2 6 3 1 5 -2 -2 -2 -2 -2 -3 -3
3 -0 2 1 0 1 5 4 3 16 22 15 -6 2 2 1 7 3 -1 2 2 -1 -1 2 2 -4 1 1 1 0 4 -4 -2 4 -4 -8 -6 -1 2 0 -1 1 -0 -4 -7 -4 -1 -2 -3 -1 -1 1 0 2
3 1 -1 0 4 2 -0 5 5 14 19 -3 -5 2 -1 3 -2 -4 -4 -5 -7 -1 -1 -2 -0 -4 1 2 -1 3 -5 1 2 2 -9 -5 -4 -6 -1 0 -2 -2 4 0 1 0 -2 -2 -1 -2 -2 -4 -4 -3
5 7 -3 -1 4 -0 1 4 8 1 10 -2 8 -3 0 -8 2 1 3 1 1 3 -7 2 -0 -2 1 1 0 -0 5 -1 -3 -7 -4 -5 1 2 0 -2 -2 -0 -0 -0 0 -6 -1 -0 -5 -1 2 -1 -2 -3
6 19 1 1 2 1 5 8 9 11 8 4 3 3 1 3 1 0 -0 -1 1 2 6 0 -1 2 -0 -2 3 -4 2 -6 -7 -3 -8 0 -2 0 -2 -2 0 1 -3 -2 -2 -1 -3 -2 -2 2 4 3 -1 -2
15 28 -11 -5 -7 6 11 10 7 -3 3 2 -1 -2 1 2 -3 -2 -4 -5 3 -0 -1 -1 4 -12 -1 2 1 -2 -5 -5 -5 -6 -2 0 -3 -2 -1 -2 0 -2 1 -1 -0 -0 3 0 -2 -1 -3 3 3 2
5 5 -4 -3 6 9 7 10 2 1 1 -1 1 -8 1 -2 0 -1 2 5 -12 -3 2 -5 -4 2 -2 -1 -1 -4 -5 -7 -0 -2 -4 -0 -2 -0 6 2 -1 -1 1 -2 0 1 -1 -1 -3 0 0 0 -1 4
-1 -1 12 -1 -0 0 -3 0 -1 0 -9 -0 -1 -2 -2 2 1 4 1 -3 8 -4 3 4 3 -1 -4 -2 -2 -4 -1 -4 -7 -5 1 -9 -2 -1 1 2 -2 0 5 0 -3 -3 -0 0 -2 1 -4 3 -6 0
7 -3 14 9 6 2 1 1 6 1 -1 -11 -0 1 -4 -6 3 0 1 3 0 3 4 2 -3 -9 -5 -12 -11 -5 -2 4 1 -1 -2 -5 -2 -1 -6 2 -5 2 2 2 1 1 -2 -9 3 4 1 1 -4 -2
25 -14 50 10 28 -2 -4 -1 2 -3 -1 -1 1 0 -3 2 0 4 1 9 14 -1 0 -15 -15 -13 1 -6 2 3 -4 7 -4 6 -6 3 -3 5 -3 -3 4 2 1 2 0 -2 -1 -9 -2 5 -0 3 -4 -3
-6 2 33 38 1 4 -4 1 -1 0 2 -0 -1 -2 1 2 -1 -2 -0 8 -2 -13 -15 -11 -15 -3 2 -8 -17 -6 -0 7 2 -0 1 -1 -0 -1 -3 -9 8 -4 -1 -4 5 -2 -11 3 2 0 -1 -1 1 3
14 18 28 5 0 4 -1 0 -1 1 0 -1 3 2 0 0 -5 8 1 -5 -14 -14 -13 -2 -4 1 -4 -5 8 3 -1 2 2 1 -1 -1 -3 2 2 -3 -1 6 6 -10 8 -2 -7 10 -1 -5 2 -3 4 -0
10 4 4 -2 -2 1 2 2 2 2 2 1 1 -0 -2 -2 2 3 -1 -4 -25 0 0 -16 5 -0 3 2 -5 -4 5 3 0 3 2 2 0 -8 3 -2 -2 -6 -3 7 0 -2 -0 3 -3 -1 2 1 1 -1
9 1 -1 1 4 -2 1 3 2 2 -0 -0 2 -1 -2 -1 2 1 -2 -9 -1 -2 -1 1 -2 -3 1 -1 0 -8 10 -6 -7 -5 -2 1 -2 5 -1 -10 -8 -4 7 5 -6 1 1 6 -4 -1 2 0 1 1
3 -3 -1 -2 2 -3 -2 -0 -0 -3 -0 1 -3 -2 1 0 3 -3 -4 -11 -3 -7 -8 -5 1 5 -5 -7 -6 -4 -11 8 9 4 -9 2 -2 6 -4 4 -1 -11 2 0 3 -0 1 2 -4 1 1 3 1 -1
1 1 -0 4 -1 0 0 1 -0 -2 -0 -2 -1 1 -1 0 -3 -9 -15 -8 -6 -6 10 13 13 5 -5 7 6 3 9 3 -3 -12 4 9 -2 4 5 1 -3 -3 5 7 2 -3 -1 -1 -2 2 4 2 0 -0
-5 -2 -4 -1 0 2 -2 0 -1 -2 -2 -2 1 -0 -2 -4 -8 -9 3 11 16 10 -6 -15 -4 -1 -6 -6 1 1 -1 2 -2 0 5 5 3 -1 -9 -2 5 3 1 3 2 2 -0 -1 -1 1 5 2 -1 -0
-1 2 -7 1 0 1 -2 -3 -3 -4 -4 -1 -2 -1 -4 -10 -14 -12 -14 -2 -1 3 6 12 11 18 3 2 3 2 4 5 5 -0 -3 -5 -3 -9 0 1 -1 2 4 4 2 2 1 -1 -1 1 1 2 1 -2
0 -0 -3 1 -1 -3 -8 -8 -7 -7 2 -0 2 3 -1 -6 -20 -0 -5 -2 -1 -3 -6 -2 2 2 -3 4 -2 -6 -5 -6 -7 -5 -2 -7 -5 8 -0 -5 -2 2 4 2 2 1 -1 -2 -0 -1 1 2 -0 -4
1 2 -1 -1 -2 -7 -6 2 4 3 3 -0 2 3 -10 -9 -21 -3 -1 -3 -4 -2 2 -4 -6 2 1 1 4 2 -8 -0 2 2 4 4 -1 -7 -1 2 0 1 2 4 4 -2 -3 -0 -2 -0 5 0 -4 -1
3 -2 -3 0 -3 -0 4 1 0 0 -1 3 -4 3 -0 2 -6 -29 -20 6 -5 -5 -10 4 1 -20 -2 4 3 7 -14 -1 -8 -2 0 1 -1 -2 -2 -2 -2 2 3 3 -0 -4 -0 -2 2 5 -2 -4 -0 3
-0 -0 1 -1 -1 -0 2 1 0 -1 1 -0 -5 -2 -4 2 -7 -27 -13 -5 -3 -6 -0 0 -4 5 5 10 10 11 5 -10 -5 -1 2 5 7 5 2 -0 1 3 2 1 -1 -3 -2 4 0 -4 -2 2 2 1
Height
1511 1512 1511 1511 1511 1510 1509 1508 1509 1510 1509 1507 1507 1507 1508 1508 1508 1511 1513 1511 1512 1509 1505 1505 1507 1506 1508 1510 1506 1508 1510 1508 1510 1509 1507 1503 1502 1498 1499 1492 1489 1486 1488 1491 1492 1491 1477 1460 1463 1459 1454 1452 1451 1451
1504 1505 1504 1504 1505 1505 1503 1503 1503 1503 1504 1503 1503 1503 1504 1505 1505 1506 1509 1509 1508 1507 1504 1500 1498 1499 1501 1502 1506 1505 1503 1502 1503 1503 1506 1506 1503 1507 1497 1481 1490 1485 1473 1469 1472 1456 1453 1455 1453 1452 1451 1452 1451 1450
1494 1495 1497 1498 1498 1498 1498 1497 1497 1497 1498 1498 1499 1500 1500 1501 1503 1502 1503 1505 1507 1504 1497 1493 1489 1490 1490 1493 1497 1501 1500 1499 1499 1499 1501 1502 1499 1498 1492 1489 1483 1479 1477 1470 1469 1445 1448 1446 1448 1447 1446 1445 1444 1443
1485 1486 1487 1489 1491 1491 1491 1492 1492 1491 1490 1491 1492 1494 1496 1497 1499 1501 1499 1499 1501 1505 1499 1490 1487 1487 1486 1485 1489 1493 1495 1496 1498 1499 1500 1497 1494 1491 1483 1482 1484 1474 1477 1467 1458 1446 1444 1441 1441 1440 1439 1440 1437 1436
1477 1477 1479 1480 1481 1483 1484 1485 1486 1487 1486 1485 1486 1487 1490 1492 1495 1496 1497 1497 1496 1500 1497 1489 1485 1482 1482 1483 1483 1486 1490 1493 1494 1496 1496 1494 1490 1489 1483 1482 1461 1464 1455 1456 1444 1440 1438 1437 1436 1436 1435 1434 1433 1432
1468 1470 1470 1472 1473 1474 1476 1477 1479 1480 1481 1481 1480 1480 1483 1486 1491 1495 1493 1488 1491 1491 1494 1491 1482 1476 1475 1475 1479 1481 1484 1488 1491 1490 1488 1486 1483 1485 1474 1459 1438 1438 1440 1438 1434 1433 1433 1433 1434 1434 1431 1428 1426 1422
1461 1462 1463 1464 1465 1465 1467 1470 1471 1472 1474 1474 1476 1475 1476 1479 1483 1488 1490 1486 1484 1489 1491 1484 1478 1476 1475 1474 1475 1479 1481 1483 1486 1486 1481 1479 1479 1480 1469 1441 1425 1426 1425 1428 1430 1431 1427 1426 1424 1425 1425 1422 1419 1416
1452 1453 1455 1456 1458 1458 1459 1461 1464 1464 1466 1468 1469 1471 1472 1474 1477 1481 1483 1484 1484 1486 1483 1481 1472 1474 1474 1476 1475 1475 1477 1479 1479 1477 1475 1474 1474 1472 1448 1417 1418 1416 1421 1420 1421 1425 1424 1423 1420 1418 1417 1416 1412 1410
1443 1444 1447 1448 1450 1451 1452 1453 1456 1458 1459 1461 1462 1465 1466 1467 1469 1470 1475 1479 1482 1484 1475 1469 1466 1463 1469 1472 1475 1475 1473 1474 1472 1468 1465 1466 1458 1443 1407 1407 1405 1407 1411 1412 1411 1416 1420 1419 1417 1415 1412 1410 1407 1404
1434 1436 1438 1440 1441 1442 1445 1446 1449 1452 1451 1450 1453 1457 1457 1457 1461 1467 1471 1476 1474 1469 1465 1460 1458 1461 1464 1467 1470 1474 1473 1467 1463 1454 1455 1451 1432 1407 1398 1393 1398 1401 1402 1406 1410 1411 1412 1412 1411 1409 1407 1404 1401 1398
1427 1429 1430 1432 1434 1435 1435 1438 1441 1443 1442 1441 1443 1448 1451 1454 1458 1460 1461 1464 1459 1456 1449 1446 1449 1451 1458 1460 1463 1466 1465 1464 1458 1445 1447 1431 1416 1388 1380 1382 1385 1388 1393 1396 1401 1403 1404 1405 1405 1403 1400 1398 1396 1394
1420 1421 1422 1425 1425 1428 1430 1430 1434 1435 1430 1434 1438 1441 1447 1449 1450 1452 1448 1447 1442 1436 1436 1437 1437 1443 1451 1455 1457 1461 1458 1460 1448 1446 1444 1422 1391 1374 1373 1373 1374 1374 1379 1385 1392 1398 1400 1401 1401 1400 1398 1395 1394 1391
1410 1413 1415 1417 1419 1420 1423 1425 1426 1427 1426 1428 1433 1434 1434 1437 1437 1433 1428 1429 1430 1423 1423 1427 1432 1437 1446 1449 1452 1454 1451 1446 1444 1442 1425 1398 1371 1372 1372 1373 1374 1373 1371 1378 1389 1397 1400 1399 1398 1397 1395 1392 1389 1387
1403 1405 1407 1410 1412 1413 1418 1419 1421 1422 1423 1423 1425 1424 1418 1418 1415 1404 1404 1407 1409 1408 1413 1421 1427 1430 1435 1441 1441 1444 1436 1437 1435 1433 1408 1373 1363 1365 1368 1371 1375 1377 1375 1376 1384 1390 1393 1395 1395 1394 1392 1389 1387 1384
1394 1396 1398 1403 1404 1406 1411 1413 1414 1418 1414 1412 1410 1402 1401 1397 1395 1395 1397 1400 1402 1404 1410 1419 1424 1427 1430 1432 1433 1432 1436 1426 1413 1395 1376 1365 1363 1361 1362 1368 1372 1375 1376 1379 1382 1385 1388 1389 1390 1389 1386 1384 1382 1379
1384 1387 1387 1393 1397 1400 1404 1406 1408 1409 1404 1400 1395 1391 1390 1392 1389 1391 1394 1398 1401 1405 1410 1413 1419 1423 1419 1418 1426 1418 1413 1402 1379 1373 1362 1363 1362 1361 1362 1367 1370 1373 1375 1377 1380 1381 1384 1383 1383 1382 1378 1376 1374 1373
1375 1372 1377 1383 1390 1393 1397 1400 1401 1403 1398 1389 1385 1384 1385 1380 1381 1384 1386 1390 1396 1400 1399 1404 1406 1402 1405 1407 1407 1397 1389 1374 1364 1359 1359 1360 1360 1361 1361 1364 1366 1370 1371 1372 1375 1375 1376 1376 1376 1376 1373 1370 1368 1365
1364 1366 1370 1376 1381 1385 1388 1391 1394 1392 1388 1382 1382 1381 1378 1377 1376 1379 1381 1383 1389 1390 1390 1389 1388 1392 1389 1386 1380 1369 1362 1358 1359 1357 1356 1356 1357 1356 1357 1358 1361 1365 1366 1366 1369 1370 1372 1371 1369 1368 1367 1366 1363 1360
1356 1359 1360 1367 1373 1378 1381 1383 1385 1380 1375 1372 1370 1373 1372 1369 1369 1373 1377 1378 1379 1379 1380 1378 1378 1375 1367 1359 1354 1351 1350 1350 1351 1352 1352 1354 1356 1355 1355 1356 1358 1361 1360 1359 1362 1364 1365 1365 1362 1361 1358 1360 1353 1355
1347 1350 1354 1358 1363 1368 1371 1373 1373 1371 1366 1363 1364 1365 1365 1363 1363 1362 1366 1369 1372 1373 1371 1365 1360 1352 1349 1346 1347 1347 1347 1347 1348 1348 1346 1346 1348 1349 1350 1350 1350 1352 1353 1354 1355 1356 1357 1357 1355 1353 1351 1350 1345 1347
1340 1340 1344 1349 1352 1356 1360 1359 1360 1359 1358 1358 1355 1357 1356 1354 1356 1354 1355 1359 1363 1359 1356 1352 1347 1342 1343 1343 1344 1343 1341 1341 1340 1340 1340 1338 1342 1342 1343 1344 1345 1346 1346 1347 1346 1348 1349 1347 1347 1346 1344 1341 1340 1340
1327 1332 1330 1331 1337 1343 1348 1348 1349 1350 1352 1350 1351 1352 1350 1348 1347 1347 1350 1352 1348 1344 1342 1340 1334 1335 1335 1333 1332 1332 1331 1332 1334 1334 1334 1334 1333 1333 1333 1336 1336 1336 1337 1338 1337 1338 1340 1337 1337 1337 1336 1335 1334 1331
1322 1326 1320 1321 1326 1330 1335 1338 1342 1342 1344 1342 1345 1344 1341 1341 1339 1340 1338 1334 1331 1329 1326 1325 1325 1324 1322 1320 1320 1317 1318 1320 1321 1321 1322 1322 1322 1324 1325 1327 1329 1329 1329 1329 1330 1330 1330 1327 1326 1329 1327 1327 1326 1324
1313 1316 1311 1310 1311 1319 1326 1329 1332 1333 1333 1336 1337 1336 1334 1331 1331 1331 1324 1320 1316 1314 1315 1313 1315 1313 1311 1309 1304 1303 1306 1308 1309 1310 1309 1310 1310 1312 1315 1316 1317 1317 1317 1318 1319 1319 1318 1316 1318 1321 1319 1319 1318 1317
1305 1303 1304 1303 1304 1311 1316 1320 1323 1327 1329 1332 1333 1329 1324 1325 1324 1320 1314 1305 1303 1301 1300 1302 1300 1296 1294 1293 1297 1296 1296 1298 1297 1294 1294 1296 1298 1301 1300 1301 1301 1303 1304 1305 1305 1305 1306 1307 1309 1312 1312 1311 1310 1310
1291 1291 1292 1295 1300 1303 1306 1314 1315 1316 1317 1321 1319 1315 1316 1317 1317 1308 1302 1292 1291 1291 1290 1286 1284 1286 1287 1285 1283 1283 1282 1285 1286 1281 1281 1283 1285 1286 1288 1288 1287 1287 1290 1292 1292 1294 1297 1299 1303 1305 1303 1302 1301 1301
1279 1282 1284 1287 1290 1293 1299 1299 1302 1307 1313 1313 1309 1312 1314 1316 1305 1292 1286 1283 1282 1279 1279 1278 1276 1276 1274 1271 1272 1270 1271 1273 1273 1270 1273 1274 1275 1276 1277 1278 1275 1276 1281 1283 1283 1285 1289 1292 1297 1298 1296 1294 1294 1294
1270 1274 1278 1283 1286 1286 1289 1294 1297 1300 1300 1298 1301 1301 1296 1293 1286 1277 1276 1274 1273 1272 1272 1273 1272 1271 1269 1266 1263 1262 1263 1263 1263 1264 1264 1265 1265 1264 1266 1269 1270 1272 1275 1276 1278 1280 1282 1285 1288 1291 1290 1288 1289 1289
1264 1266 1272 1279 1284 1284 1284 1285 1286 1284 1284 1286 1288 1288 1282 1276 1275 1274 1273 1272 1270 1267 1264 1263 1263 1262 1260 1258 1257 1256 1255 1255 1255 1255 1255 1252 1253 1254 1259 1261 1264 1266 1270 1272 1273 1275 1277 1279 1282 1284 1284 1283 1283 1284
1262 1264 1268 1274 1277 1277 1270 1271 1271 1273 1274 1274 1272 1269 1266 1264 1265 1266 1264 1262 1260 1257 1255 1254 1253 1253 1251 1251 1249 1248 1247 1246 1246 1247 1247 1246 1246 1250 1252 1256 1260 1264 1266 1267 1268 1268 1271 1274 1276 1277 1278 1278 1278 1281
1252 1257 1261 1263 1264 1259 1261 1263 1264 1265 1265 1264 1263 1261 1257 1256 1252 1251 1250 1247 1246 1244 1241 1239 1239 1239 1239 1240 1239 1239 1239 1239 1238 1239 1240 1243 1244 1246 1250 1253 1257 1260 1261 1261 1261 1262 1265 1269 1271 1274 1272 1271 1275 1279
1247 1249 1253 1257 1256 1253 1255 1257 1257 1258 1257 1256 1254 1254 1252 1249 1243 1235 1232 1235 1233 1228 1223 1224 1223 1222 1225 1227 1229 1231 1233 1233 1234 1235 1237 1238 1241 1244 1248 1251 1253 1255 1256 1256 1255 1259 1262 1266 1268 1268 1267 1270 1274 1277
1244 1246 1247 1249 1250 1250 1250 1253 1252 1252 1251 1249 1245 1242 1240 1238 1230 1220 1218 1217 1216 1212 1209 1208 1210 1212 1214 1216 1219 1222 1225 1228 1229 1231 1233 1236 1238 1241 1243 1245 1247 1248 1249 1250 1252 1255 1259 1261 1262 1265 1267 1270 1272 1274